Regional Weather Roundup
Issued by NWS

Home | Current Version | Previous Version | Text Only | Print | Product List | Glossary Off
Versions: 1 2 3 4 5 6 7 8 9 10 11 12 13 14 15 16 17 18 19 20 21 22 23 24 25 26 27 28 29 30 31 32 33 34 35 36 37 38 39 40 41 42 43 44 45 46 47 48 49 50

774
ASUS43 KFSD 310710
RWRSD

WEATHER ROUNDUP FOR SOUTH DAKOTA
NATIONAL WEATHER SERVICE SIOUX FALLS SD
200 AM CDT SUN JUL 31 2016

NOTE: "FAIR" INDICATES FEW OR NO CLOUDS BELOW 12,000 FEET WITH NO
SIGNIFICANT WEATHER AND/OR OBSTRUCTIONS TO VISIBILITY.


SDZ001>005-009-010-012>017-310800-
NORTHWEST AND NORTH CENTRAL SOUTH DAKOTA

CITY           SKY/WX    TMP DP  RH WIND       PRES   REMARKS
BUFFALO          N/A     66  58  75 SE9       29.74S
FAITH            N/A     68  61  78 S14       29.80F
MOBRIDGE       CLOUDY    71  65  81 E10G20    29.77F
$$

SDZ012>016-024>037-041>051-057-063-072>074-310800-
SOUTHWEST AND SOUTH CENTRAL SOUTH DAKOTA

CITY           SKY/WX    TMP DP  RH WIND       PRES   REMARKS
RAPID CTY ARPT CLOUDY    64  60  87 NW13      29.86F THUNDER
PIERRE         CLOUDY    71  67  87 SE12      29.77F
CUSTER         CLOUDY    63  53  70 SE9       30.02R
ELLSWORTH AFB  LGT RAIN  68  59  73 S23       29.86
PHILIP         CLOUDY    70  62  76 SW16G38   29.80R
PINE RIDGE     CLOUDY    67  58  72 E16G25    29.91F
WINNER         FAIR      75  69  81 SW24G33   29.85F
$$

SDZ004>011-016>023-039-040-310800-
NORTHEAST SOUTH DAKOTA

CITY           SKY/WX    TMP DP  RH WIND       PRES   REMARKS
ABERDEEN       CLOUDY    68  61  78 SE10      29.86F
WATERTOWN      CLEAR     66  57  72 SE12      29.93F
BROOKINGS      PTCLDY    63  58  83 SE10      29.95S
SISSETON         N/A     59  58  96 SE6       29.90F
$$

SDZ017-020-022-023-036>040-048>070-310800-
SOUTHEAST SOUTH DAKOTA

CITY           SKY/WX    TMP DP  RH WIND       PRES   REMARKS
SIOUX FALLS    CLEAR     68  61  78 S5        29.95S
HURON          MOCLDY    71  62  73 SE10      29.88F
CHAMBERLAIN    CLOUDY    73  69  87 SE13      29.87R
MITCHELL       CLOUDY    74  64  71 SE14      29.90S
YANKTON        CLOUDY    72  63  73 E9        29.91F
$$

ABBREVIATIONS USED IN REMARKS
   TC - TEMPERATURE IN CELSIUS
  WCI - WIND CHILL INDEX
   HX - HEAT INDEX
  VSB - VISIBILITY





USA.gov is the U.S. government's official web portal to all federal, state and local government web resources and services.